FW7665 Weather Reports


Display with metric or nautical units.
time (UTC)temp
F
wind
direction
speed
MPH
gust
MPH
rain 1hr
in
rain 24hr
in
rain mn
in
humidity
%
barometer
mb
20210415101916 27 0 0.0 0.0 0.00 0.00 0.00 87 1018.1
20210415101025 27 0 0.0 0.0 0.00 0.00 0.00 87 1018.1
20210415100114 27 0 0.0 0.0 0.00 0.00 0.00 87 1018.1
20210415094313 27 72 0.0 1.0 0.00 0.01 0.00 87 1018.1
20210415093157 27 0 0.0 0.0 0.00 0.01 0.00 87 1018.1
20210415091617 27 0 0.0 0.0 0.00 0.01 0.00 87 1018.1
20210415090714 28 0 0.0 0.0 0.00 0.01 0.00 87 1018.1
20210415085716 28 0 0.0 0.0 0.00 0.01 0.00 86 1018.1
20210415084036 28 0 0.0 0.0 0.00 0.01 0.00 86 1018.1
20210415083437 28 0 0.0 0.0 0.00 0.01 0.00 86 1018.1
20210415082909 28 0 0.0 0.0 0.00 0.01 0.00 86 1018.1
20210415081312 28 0 0.0 0.0 0.00 0.01 0.00 86 1018.1
20210415080427 28 0 0.0 0.0 0.00 0.01 0.00 86 1018.1
20210415074628 28 0 0.0 0.0 0.00 0.01 0.00 86 1018.1
20210415073719 28 0 0.0 0.0 0.00 0.01 0.00 86 1018.1
20210415072847 28 0 0.0 0.0 0.00 0.01 0.00 86 1018.1
20210415071225 28 0 0.0 0.0 0.00 0.01 0.00 87 1018.1
20210415070257 28 0 0.0 0.0 0.00 0.01 0.00 86 1018.1
20210415065739 28 0 0.0 0.0 0.00 0.01 0.00 86 1018.1
20210415064317 28 0 0.0 0.0 0.00 0.01 0.00 86 1018.1
20210415063416 28 0 0.0 0.0 0.00 0.01 0.00 86 1018.1
20210415062933 28 0 0.0 0.0 0.00 0.01 0.00 86 1018.1
20210415061630 28 0 0.0 0.0 0.00 0.01 0.00 86 1018.1
20210415060716 29 0 0.0 0.0 0.00 0.01 0.00 86 1018.1
20210415055917 29 0 0.0 0.0 0.00 0.01 0.01 86 1018.1
20210415054944 29 0 0.0 0.0 0.00 0.01 0.01 86 1018.1
20210415054027 29 0 0.0 0.0 0.00 0.01 0.01 86 1018.1
20210415053215 29 0 0.0 0.0 0.00 0.01 0.01 86 1018.1
20210415052814 29 0 0.0 0.0 0.00 0.01 0.01 86 1018.1
20210415051311 29 0 0.0 0.0 0.00 0.01 0.01 86 1018.1
20210415050430 29 0 0.0 0.0 0.00 0.01 0.01 86 1018.1
20210415045828 29 0 0.0 0.0 0.00 0.01 0.01 86 1018.1
20210415044617 29 0 0.0 0.0 0.00 0.01 0.01 86 1018.1
20210415043717 29 0 0.0 0.0 0.00 0.01 0.01 85 1018.1
20210415042259 29 0 0.0 0.0 0.00 0.01 0.01 85 1018.1
20210415041040 29 0 0.0 0.0 0.00 0.01 0.01 85 1018.1
20210415040111 29 0 0.0 0.0 0.00 0.01 0.01 85 1018.1
20210415035746 29 0 0.0 0.0 0.00 0.01 0.01 85 1018.1
20210415034310 29 0 0.0 0.0 0.00 0.01 0.01 85 1018.1
20210415033429 30 0 0.0 0.0 0.00 0.01 0.01 84 1018.1
20210415032754 30 0 0.0 0.0 0.00 0.01 0.01 84 1018.1
20210415031618 30 62 0.0 3.0 0.00 0.01 0.01 83 1018.1
20210415030710 30 62 0.0 3.0 0.00 0.01 0.01 82 1018.1
20210415025437 30 0 0.0 0.0 0.00 0.01 0.01 82 1018.1
20210415024032 30 252 0.0 1.0 0.00 0.01 0.01 83 1018.1
20210415023110 30 0 0.0 0.0 0.00 0.01 0.01 84 1018.1
20210415022442 30 0 0.0 0.0 0.00 0.01 0.01 84 1018.1
20210415021310 31 0 0.0 0.0 0.00 0.01 0.01 83 1018.1
20210415020207 31 260 0.0 3.0 0.00 0.01 0.01 83 1018.1
20210415014658 31 0 0.0 0.0 0.00 0.01 0.01 84 1018.1
20210415013729 31 0 0.0 0.0 0.00 0.01 0.01 85 1018.1
20210415012939 30 0 0.0 0.0 0.00 0.01 0.01 85 1018.1
20210415011030 30 0 0.0 0.0 0.00 0.01 0.01 83 1018.1
20210415010141 30 0 0.0 0.0 0.00 0.01 0.01 83 1018.1
20210415005852 31 0 0.0 0.0 0.00 0.01 0.01 83 1018.1
20210415004317 30 0 0.0 0.0 0.00 0.01 0.01 81 1018.1
20210415003411 31 0 0.0 0.0 0.00 0.01 0.01 80 1018.1
20210415002322 32 63 0.0 1.0 0.00 0.01 0.01 77 1018.1
20210415001051 32 64 0.0 4.0 0.00 0.01 0.01 76 1018.1
20210415000309 31 71 0.0 2.0 0.00 0.01 0.01 77 1018.1
20210414235528 31 0 0.0 0.0 0.00 0.01 0.01 77 1018.1
20210414234141 32 0 0.0 0.0 0.00 0.01 0.01 76 1018.1
20210414233226 32 0 0.0 0.0 0.00 0.01 0.01 76 1018.1
20210414232654 32 75 0.0 3.0 0.00 0.01 0.01 76 1018.1
20210414231320 32 0 0.0 0.0 0.00 0.01 0.01 77 1018.1
20210414230424 31 0 0.0 0.0 0.00 0.01 0.01 78 1018.1
20210414225906 31 0 0.0 0.0 0.00 0.01 0.01 77 1018.1
20210414224643 32 51 0.0 2.0 0.00 0.01 0.01 77 1018.1
20210414223712 32 104 0.0 6.0 0.00 0.01 0.01 76 1018.1
20210414222916 32 0 0.0 0.0 0.00 0.01 0.01 78 1018.1
20210414222045 32 0 0.0 0.0 0.00 0.01 0.01 77 1018.1
20210414221027 32 0 0.0 0.0 0.00 0.01 0.01 77 1018.1
20210414220112 31 49 0.0 2.0 0.00 0.01 0.01 79 1018.1
20210414215431 31 107 0.0 4.0 0.00 0.01 0.01 78 1018.1
20210414214309 32 96 0.0 4.0 0.00 0.01 0.01 75 1018.1
20210414213421 33 73 2.0 8.0 0.00 0.01 0.01 75 1018.1
20210414212951 32 86 0.0 2.0 0.00 0.01 0.01 76 1018.1
20210414211624 33 63 0.0 3.0 0.00 0.01 0.01 74 1018.1
20210414210712 34 67 2.0 7.0 0.00 0.01 0.01 73 1018.1
20210414205914 36 63 2.0 7.0 0.00 0.01 0.01 68 1018.1
20210414204949 37 59 3.0 8.0 0.00 0.01 0.01 68 1018.1
20210414204020 37 77 5.0 9.0 0.00 0.01 0.01 65 1018.1
20210414203123 40 76 4.0 11.0 0.00 0.01 0.01 65 1018.1
20210414202836 42 79 4.0 10.0 0.00 0.01 0.01 61 1018.1
20210414201319 39 84 1.0 6.0 0.00 0.01 0.01 69 1018.1
20210414200415 38 81 1.0 7.0 0.00 0.01 0.01 68 1018.1
20210414195846 39 94 1.0 7.0 0.00 0.01 0.01 67 1018.1
20210414194625 39 59 0.0 4.0 0.00 0.01 0.01 70 1018.1
20210414193709 38 65 0.0 2.0 0.00 0.01 0.01 68 1018.1
20210414192954 38 80 1.0 6.0 0.00 0.01 0.01 69 1018.1
20210414191950 38 75 0.0 3.0 0.00 0.01 0.01 70 1018.1
20210414191022 38 64 0.0 3.0 0.00 0.01 0.01 68 1018.1
20210414190159 36 67 0.0 4.0 0.00 0.01 0.01 74 1018.1
20210414185642 35 79 0.0 4.0 0.00 0.01 0.01 74 1018.1
20210414184311 34 85 1.0 3.0 0.00 0.01 0.01 74 1018.1
20210414183431 35 79 0.0 4.0 0.00 0.01 0.01 72 1018.1
20210414182920 35 76 1.0 5.0 0.00 0.01 0.01 73 1018.1
20210414181642 35 76 1.0 6.0 0.00 0.01 0.01 74 1018.1
20210414180712 34 70 0.0 3.0 0.00 0.01 0.01 77 1018.1
20210414180124 32 67 0.0 4.0 0.00 0.01 0.01 80 1018.1
20210414175152 32 73 0.0 5.0 0.00 0.01 0.01 79 1018.1
20210414174021 32 92 0.0 5.0 0.00 0.01 0.01 77 1018.1
20210414173109 32 85 0.0 1.0 0.00 0.01 0.01 78 1018.1
20210414172714 31 102 0.0 4.0 0.00 0.01 0.01 75 1018.1
20210414171322 31 61 0.0 1.0 0.00 0.01 0.01 77 1018.1
20210414170624 30 71 0.0 6.0 0.00 0.01 0.01 76 1018.1
20210414165952 30 97 0.0 6.0 0.00 0.01 0.01 77 1018.1
20210414164621 29 28 0.0 1.0 0.00 0.01 0.01 76 1018.1
20210414163708 29 0 0.0 0.0 0.00 0.01 0.01 74 1018.1
20210414163112 28 0 0.0 0.0 0.00 0.01 0.01 76 1018.1
20210414162233 28 0 0.0 0.0 0.00 0.01 0.01 77 1018.1
20210414161021 27 0 0.0 0.0 0.00 0.01 0.01 78 1018.1
20210414160155 27 0 0.0 0.0 0.00 0.01 0.01 78 1018.1
20210414155733 27 13 0.0 1.0 0.00 0.01 0.01 78 1018.1
20210414154308 27 0 0.0 0.0 0.00 0.01 0.01 81 1018.1
20210414153409 26 0 0.0 0.0 0.00 0.01 0.01 81 1018.1
20210414152914 26 0 0.0 0.0 0.00 0.01 0.01 81 1018.1
20210414151619 26 0 0.0 0.0 0.00 0.01 0.01 81 1018.1
20210414150723 25 0 0.0 0.0 0.00 0.01 0.01 82 1018.1
20210414150028 25 0 0.0 0.0 0.00 0.01 0.01 83 1018.1
20210414145142 24 0 0.0 0.0 0.00 0.01 0.01 83 1018.1
20210414144022 24 0 0.0 0.0 0.00 0.01 0.01 83 1018.1
20210414143114 24 0 0.0 0.0 0.00 0.01 0.01 84 1018.1
20210414142700 23 0 0.0 0.0 0.00 0.01 0.01 84 1018.1
20210414141309 23 0 0.0 0.0 0.00 0.01 0.01 84 1018.1
20210414140411 23 0 0.0 0.0 0.00 0.01 0.01 84 1018.1
20210414135955 23 0 0.0 0.0 0.00 0.01 0.01 84 1018.1
20210414134618 23 0 0.0 0.0 0.00 0.01 0.01 84 1018.1
20210414133715 23 0 0.0 0.0 0.00 0.01 0.01 85 1018.1
20210414133104 23 0 0.0 0.0 0.00 0.01 0.01 85 1018.1
20210414132237 23 0 0.0 0.0 0.00 0.01 0.01 85 1018.1
20210414131123 23 0 0.0 0.0 0.00 0.01 0.01 85 1018.1
20210414130600 23 0 0.0 0.0 0.00 0.01 0.01 86 1018.1
20210414125939 23 0 0.0 0.0 0.00 0.01 0.01 86 1018.1
20210414124308 22 0 0.0 0.0 0.00 0.01 0.01 86 1018.1
20210414123413 22 0 0.0 0.0 0.00 0.01 0.01 85 1018.1
20210414122848 23 0 0.0 0.0 0.00 0.01 0.01 85 1018.1
20210414121614 23 0 0.0 0.0 0.00 0.01 0.01 85 1018.1
20210414120726 23 0 0.0 0.0 0.00 0.01 0.01 85 1018.1
20210414115835 23 0 0.0 0.0 0.00 0.01 0.01 85 1018.1
20210414114956 23 0 0.0 0.0 0.00 0.01 0.01 85 1019.6
20210414114020 23 0 0.0 0.0 0.00 0.01 0.01 85 1019.6
20210414113108 23 0 0.0 0.0 0.00 0.01 0.01 85 1019.6
20210414112823 23 0 0.0 0.0 0.00 0.01 0.01 85 1019.6
20210414111309 23 0 0.0 0.0 0.00 0.01 0.01 84 1019.6
20210414110527 23 0 0.0 0.0 0.00 0.01 0.01 84 1019.6
20210414110035 24 0 0.0 0.0 0.00 0.02 0.01 84 1019.6
20210414104611 24 0 0.0 0.0 0.01 0.02 0.01 84 1019.6
20210414103709 24 0 0.0 0.0 0.01 0.02 0.01 84 1019.6